Showing default

METEOR 2-11, 15099

Orbit data source: Space-Track

METEOR 2-11, 15099 is a Commonwealth of Independent States-origin payload satellite in LEO that was launched on Thu, 05 Jul 1984 UTC via a TSIKLON-3 launch vehicle from the Plesetsk Missile And Space Complex (PKMTR). Payload-class satellites include a variety of spacecraft equipped with specific instruments for various scientific and technological missions. These include communications satellites like Starlink; space stations such as the ISS; scientific satellites like the Hubble; Earth observation satellites from companies like Planet Labs, Umbra, and HawkEye 360; GPS; miniature CubeSats for education and research; and military/defense satellites.

Loading next visibility...
Identifier
15099, 1984-072A
Orbit
LEO
Country
Flag of CISCIS
Related business
Manufacturer
VNIIEM
Mission
Spacecraft
Bus & Motor
METEOR-2, Unknown motor
Mass
~1,500 kg wet, ~1,500 kg dry
Launch date (UTC)
1984-07-05 (42 years ago)
Launch vehicle
TSIKLON-3
Launch site
Plesetsk Missile And Space Complex (PKMTR)
Object type
Payload
Rocket body
Debris
Shape & HBR
CYL + 2 PAN, 2.3 m
Radar Cross Section
Large (>1 m²)

Expand to show TLE details & history
Last TLE update: 13 hours ago

TLE from 13 hours ago
0 METEOR 2-11
1 15099U 84072A   26209.14489911  .00000051  00000-0  31825-4 0  9990
2 15099  82.5315   6.4992 0012572 340.7210  19.3473 13.85304799126010
Epoch: 2026-07-28T03:28Z
TLE epoch observation values (Epoch: 2026-07-28T03:28:39.283Z)
Latitude
-0.00004°
Longitude
8.51718°
Altitude
939.347 km
Speed
7.386 km/s
True Right ascension
00h 25m 59s
True Declination
0° 00' 00"
Sunlit
Object was in partial shadow at epoch
Visualization orbit readout
Latitude
Unknown
Longitude
Unknown
Altitude
Unknown
Speed
Unknown
Apparent Right ascension
Unknown
Apparent Declination
Unknown
Sunlit
N/A
Visualization observer readout
Local Sidereal Time
05:26:54
Azimuth
Unknown
Elevation
Unknown
Doppler factor
Unknown
Orbital elements
Apogee altitude
951.485 km
Perigee altitude
933.079 km
Semi-major axis
7,320.419 km
Eccentricity
0.00126
Inclination
82.5315°
RAAN
6.4992°
Arg. of periapsis
340.721°
True anomaly
19.3951°
Mean anomaly
19.3473°
Eccentric anomaly
19.37119°
Mean motion
3.46529 °/min
Orbital period
103.89 mins
BSTAR
0.000031825
Loading maneuver chart data...
Computing Atmospheric mass density...
Loading historical data...
Loading historical data...
Loading historical data...
Loading historical data...
Loading historical data...
Loading historical data...
Loading historical data...

Documentation

Showing up to 5 results
|